Location: Clanezzo
(45.7500°N, 9.6000°E)
Time: 00:30:19
(UTC+00:00)

USA 308 - Pass Details

Date: 02 October 2021
Orbit: 566 x 573 km, 54.0° (Epoch: 23 September)

Event Time Altitude Azimuth Distance (km) Brightness Sun altitude
Rises 19:31:27 0° 294° (WNW) 2,771 7.7 -26.7°
Reaches altitude 10° 19:34:13 10° 276° (W) 1,871 6.4 -27.2°
Maximum altitude 19:37:11 19° 231° (SW) 1,395 5.1 -27.6°
Enters shadow 19:37:25 19° 227° (SW) 1,398 5.0 -27.7°
